sat.trackr.live / text

‹ back to catalog

UNKNOWN

NORAD 81406

UNKNOWN UNKNOWN UNKNOWN

§ Identity

Operator
Country
Launch date
Launch site
Launch vehicle
Mass (kg)
RCS (m²)

External: N2YO · Heavens-Above

§ Orbital elements

Epoch: 2026-09-04T10:59:18.532896Z

Period
109.68 min
Inclination
65.8104°
Eccentricity
0.0863170
Mean motion
13.12936059 rev/d
Perigee alt
556.7 km
Apogee alt
1,867.0 km
Semi-major
7,590.0 km
B*
6.1047e-4
RAAN
276.2578°
Arg perigee
202.7441°
Mean anomaly
153.3090°
Rev number
56,855

§ Raw data

UNKNOWN1 81406U          26247.45785339  .00001485  00000+0  61047-3 0  99922 81406  65.8104 276.2578 0863170 202.7441 153.3090 13.12936059568556

JSON: /api/v1/satellites/81406 · /tle

For live sub-satellite position, see the globe view (requires WebGL).

§ Visibility from observer

Set your observer location to see the next 7 days of passes ≥ 10°. The values pass through the URL so the page stays shareable.

No JS? Fill the form by hand. The geolocation button needs JavaScript.